GFSNE_2pvu_pres_000.txt.gz
Presure
207 246 233 222 224 262 251 232 272 264 233 228 223 222 212 221 129 210 205 216 224 227 228 180 247 254 256 257 260 264 297 248 271 265 260 257 257 251
241 229 204 195 254 236 259 238 238 202 183 197 216 219 109 205 214 135 226 235 250 350 208 250 480 482 483 479 473 470 487 497 498 223 414 415 417 452
217 247 258 230 254 235 230 196 223 225 232 222 124 161 112 225 222 242 477 489 478 469 462 456 458 457 450 449 449 448 315 442 444 454 469 481 456 386
254 249 189 229 228 214 223 224 225 206 210 153 213 229 243 502 491 482 472 465 456 442 433 433 423 419 414 478 489 504 510 499 469 478 475 416 422 427
247 265 222 167 219 220 212 214 207 222 226 234 517 500 494 483 474 458 448 427 407 399 420 539 526 521 512 493 419 422 487 491 485 484 472 471 470 464
187 152 201 216 204 170 214 215 230 262 476 492 483 471 463 443 440 420 389 388 465 483 472 481 489 491 446 451 378 380 433 461 447 430 414 406 416 451
157 211 204 208 210 217 231 257 359 493 475 453 442 444 423 411 399 385 445 454 443 448 419 360 367 375 370 365 367 373 378 382 566 574 501 485 460 436
207 207 206 214 225 241 350 470 473 453 443 486 496 492 477 434 392 488 444 424 342 357 370 348 359 357 359 358 362 361 364 369 505 515 529 552 538 483
203 218 224 234 311 361 482 461 463 493 496 503 539 545 547 522 481 433 347 347 364 341 338 342 355 349 347 343 351 355 367 471 471 478 500 503 519 541
223 232 273 313 360 472 470 502 492 502 509 514 522 510 482 455 384 333 357 329 329 340 336 338 340 342 338 339 342 358 444 444 440 454 481 480 502 526
229 300 322 349 466 496 492 474 559 555 541 491 465 443 413 339 380 326 326 329 331 333 335 339 351 355 336 340 348 360 367 410 437 443 468 478 528 524
299 321 341 455 491 479 459 576 558 459 439 416 410 348 341 347 330 326 332 336 336 337 342 342 344 348 328 336 347 360 351 357 378 425 443 464 548 561
316 397 444 475 478 449 464 429 439 404 391 350 333 349 326 319 329 324 330 328 327 326 330 344 344 355 355 336 342 353 351 350 352 365 422 443 469 568
416 438 456 542 574 499 428 499 392 354 337 337 330 318 309 316 315 317 320 316 319 324 326 349 349 349 345 361 340 351 339 346 352 349 361 411 441 475
434 438 482 495 460 461 423 363 341 326 340 324 311 324 319 321 315 307 304 302 299 318 325 345 354 343 347 382 329 345 316 310 333 351 353 353 369 411
436 481 444 445 442 380 360 333 350 328 315 309 314 316 314 316 308 307 303 298 299 323 324 345 349 353 315 386 408 339 303 314 324 331 354 385 388 359
487 444 438 399 372 359 335 381 324 308 304 313 314 308 302 301 299 302 296 306 289 302 323 327 356 354 350 369 451 384 333 301 304 310 321 357 380 412
446 498 418 366 354 355 345 316 305 300 311 311 311 301 293 291 297 290 298 300 291 275 299 330 338 361 365 360 368 417 335 312 291 291 293 355 364 377
532 390 361 354 348 324 312 315 316 309 314 300 303 297 289 286 293 289 286 291 294 276 294 295 329 354 358 296 354 349 336 371 376 369 282 335 355 357
386 359 351 338 315 311 304 298 299 299 302 304 301 301 291 284 288 290 283 287 294 293 291 295 339 336 356 376 377 360 340 354 283 312 299 292 290 325
361 345 327 319 303 301 294 292 290 288 286 285 291 295 291 298 294 285 283 283 277 271 275 280 313 340 350 366 358 364 359 350 350 296 290 288 286 288
348 331 307 298 297 292 291 284 289 286 285 268 282 282 281 280 293 289 288 281 279 282 284 266 256 317 346 354 358 356 368 375 308 294 286 281 285 348
315 304 297 291 293 285 291 291 276 262 287 267 268 269 267 271 268 263 263 280 282 276 279 284 284 305 313 358 349 351 364 365 298 293 284 277 280 328

GFSNE_2pvu_pres_003.txt.gz
Presure
204 227 290 258 239 227 262 263 264 262 303 228 213 212 209 220 222 225 225 226 226 227 223 223 231 236 241 243 245 249 252 253 252 252 252 221 240 237
239 263 177 229 254 259 249 252 229 193 187 208 218 219 64 218 215 142 183 188 246 253 258 262 262 355 356 372 482 483 484 489 496 491 239 500 431 364
265 232 230 153 236 253 280 216 219 220 224 213 209 151 155 231 242 192 426 499 490 485 475 469 465 457 454 452 122 362 448 448 449 452 457 430 470 471
217 258 254 242 281 212 220 154 211 211 221 237 239 142 322 488 490 483 472 463 460 453 444 438 432 423 420 418 465 492 545 545 541 519 86 84 485 486
262 246 255 229 207 200 203 208 213 143 236 254 353 394 489 508 510 505 493 487 473 445 422 416 409 419 464 481 480 462 463 480 480 534 519 518 500 511
255 270 212 215 197 184 217 232 233 256 340 356 488 516 504 491 509 535 524 493 490 457 414 406 461 443 376 368 370 367 366 373 376 377 378 404 533 434
275 216 210 174 216 197 234 251 313 337 467 491 504 485 577 572 562 534 552 544 500 451 454 436 371 353 367 359 354 358 359 359 363 370 376 380 385 392
214 169 171 164 227 236 268 317 344 461 488 498 592 581 575 565 514 482 462 447 413 427 371 342 366 341 342 349 347 348 351 351 351 361 364 367 371 377
204 217 223 229 243 311 320 371 450 508 593 515 493 475 446 443 433 427 398 378 357 373 335 330 329 343 347 349 353 348 345 343 351 355 372 400 456 486
218 222 229 276 308 325 375 464 606 595 483 437 426 412 434 370 354 390 424 375 331 327 328 333 333 334 339 339 353 344 338 345 362 367 399 458 462 486
224 230 297 301 323 366 453 497 573 462 502 407 374 354 340 397 345 325 325 328 333 332 331 330 333 348 355 345 357 333 341 353 359 355 370 438 446 464
256 292 300 319 357 453 485 469 460 448 386 358 352 393 343 324 317 317 316 321 321 322 321 331 339 356 358 360 350 335 342 354 354 352 364 412 446 462
293 300 314 368 448 502 458 457 400 361 347 339 355 332 322 328 321 316 319 310 307 308 311 324 344 350 354 352 414 338 346 354 354 368 360 372 440 458
304 315 412 446 498 462 430 377 351 333 349 334 319 325 314 325 312 306 304 306 301 296 319 329 344 350 349 356 455 333 349 332 343 369 394 363 409 458
310 463 445 489 477 412 371 346 328 347 327 312 319 308 318 307 310 309 308 302 304 295 288 336 341 361 355 355 463 329 350 352 316 348 375 362 373 454
356 443 482 478 404 373 359 330 336 320 304 310 309 313 305 300 295 295 291 305 302 291 282 337 345 362 351 474 455 336 341 308 316 329 363 394 360 412
446 481 467 451 376 363 363 327 319 320 314 313 308 310 302 291 290 294 302 298 295 292 288 341 345 360 357 381 411 349 332 312 303 346 356 379 393 363
486 470 445 375 357 346 310 314 305 303 296 296 301 300 301 294 290 297 295 290 298 294 295 328 342 362 373 347 400 395 329 315 288 306 361 364 389 393
505 439 372 351 344 311 310 305 301 299 294 287 288 295 300 300 294 295 295 286 294 275 291 299 332 366 372 294 362 355 369 368 287 282 366 355 369 388
398 370 355 341 306 299 300 291 291 280 283 286 280 279 278 292 293 300 296 292 282 278 290 282 316 362 365 352 339 332 347 287 293 289 340 352 357 383
368 351 323 308 298 296 292 299 298 303 292 277 269 261 271 283 278 282 297 292 287 279 284 268 301 318 360 366 344 330 341 293 287 286 287 338 348 376
336 312 304 297 296 302 305 297 280 295 296 292 304 372 342 268 268 277 266 274 288 282 277 286 300 313 344 354 386 350 351 306 287 284 282 293 341 358
310 304 297 302 303 300 306 361 360 357 416 420 419 420 372 393 339 267 258 268 272 287 275 284 293 304 318 331 376 386 354 303 283 281 282 309 321 319

GFSNE_2pvu_pres_006.txt.gz
Presure
181 190 183 198 197 203 139 258 235 277 256 281 273 235 221 154 216 219 215 214 213 215 222 226 231 240 243 243 236 230 231 237 237 232 227 224 219 215
189 188 194 202 209 236 222 257 265 272 278 222 147 196 186 212 228 167 235 251 302 443 508 505 498 485 473 469 474 478 484 487 487 489 491 186 361 291
199 189 200 213 235 156 248 286 271 237 225 209 212 226 236 192 205 169 376 493 509 518 507 496 496 503 502 485 459 446 452 465 464 455 439 373 487 499
137 190 177 223 217 268 270 248 221 167 216 230 238 238 267 327 351 474 591 611 600 590 570 540 540 533 506 497 487 468 460 445 419 485 480 206 486 508
205 214 219 227 268 251 201 218 210 221 235 248 270 330 330 514 633 603 590 591 584 570 562 545 547 513 495 491 483 447 455 477 424 410 434 409 458 507
223 207 251 276 254 198 189 201 225 240 253 280 337 392 635 593 466 458 466 474 476 484 483 480 487 481 473 475 455 419 369 363 367 369 375 382 384 383
213 273 272 235 167 186 214 230 244 267 319 341 488 532 483 441 434 445 452 447 438 456 389 405 371 359 361 358 357 352 348 347 350 354 358 365 367 368
273 257 217 213 204 222 235 244 271 331 347 516 505 517 420 416 441 402 350 445 447 466 362 343 332 334 333 341 348 358 360 359 362 362 352 353 352 354
241 161 196 185 227 235 250 280 316 343 515 498 485 412 397 360 368 394 355 341 330 328 331 346 340 345 346 343 345 362 362 358 366 365 349 347 351 353
180 191 214 223 239 260 309 312 401 509 477 449 407 374 355 352 344 335 315 325 328 329 325 327 324 327 335 345 362 364 359 369 359 341 351 363 371 367
199 215 226 238 296 308 328 444 510 469 428 392 356 351 359 339 324 328 325 323 326 324 312 312 311 329 341 353 358 358 364 366 359 350 362 361 359 356
214 228 250 303 307 387 472 506 493 418 380 348 340 354 329 333 323 323 308 308 311 318 310 304 313 339 350 362 354 354 363 443 340 358 350 357 395 354
229 265 298 320 420 465 496 517 409 387 379 359 339 326 322 313 317 311 312 304 299 305 308 302 290 349 373 374 357 382 450 342 351 314 327 367 400 361
288 295 318 444 461 494 487 407 383 383 359 335 322 312 314 316 306 294 297 292 296 305 300 295 305 351 374 364 448 304 344 343 347 311 337 371 405 370
292 314 464 454 410 481 405 372 370 362 310 330 312 318 315 312 306 296 296 297 299 302 305 295 338 361 378 464 434 362 334 333 336 317 346 388 365 393
394 467 446 386 491 402 366 357 343 319 316 316 315 306 299 303 304 300 297 298 294 299 303 297 323 364 384 415 395 346 330 305 302 347 356 406 366 432
466 434 407 475 400 367 360 342 321 306 311 307 300 299 299 300 301 303 292 293 289 295 279 296 314 371 374 400 411 330 325 293 296 354 361 400 369 405
419 494 457 389 364 351 347 318 305 304 292 292 288 288 290 282 289 295 291 300 287 288 285 291 308 341 371 355 362 329 372 290 290 347 368 393 368 379
494 442 383 359 349 339 314 305 295 293 296 300 290 294 292 280 285 277 290 301 290 285 290 284 303 326 376 346 339 347 280 294 331 356 371 385 384 371
431 375 351 328 316 307 298 299 304 308 308 308 301 308 285 274 267 272 285 288 300 286 284 287 301 318 372 355 345 325 277 287 294 331 372 380 389 398
362 340 320 309 301 303 316 308 335 365 364 389 419 395 401 373 332 299 270 277 290 287 283 287 296 314 345 383 339 322 282 282 289 291 369 380 391 399
329 318 306 302 311 312 410 415 419 427 430 412 398 400 403 407 394 346 307 279 266 288 283 286 294 311 341 376 340 340 286 285 286 290 361 397 405 413
313 306 305 311 298 296 296 362 234 389 405 404 397 392 389 390 393 376 276 286 256 269 283 283 291 304 336 368 337 329 293 285 285 288 347 359 407 417

GFSNE_2pvu_pres_009.txt.gz
Presure
185 192 191 179 182 182 191 204 190 197 203 231 218 169 277 258 246 223 164 177 197 222 224 232 257 355 357 97 389 505 293 293 291 265 254 252 249 229
192 184 178 178 198 184 127 162 210 218 242 227 151 261 251 123 205 205 186 240 288 345 359 643 615 632 436 625 604 571 537 518 513 513 509 497 488 486
174 179 188 188 196 198 202 214 223 266 238 265 247 223 162 224 222 191 251 349 166 578 536 505 479 510 582 617 610 589 569 547 515 488 485 495 484 475
183 194 192 200 199 206 216 234 260 279 259 147 168 216 163 231 282 345 517 522 506 295 458 122 420 477 485 494 511 521 569 562 540 527 500 484 471 461
194 196 197 194 211 175 256 283 263 189 199 214 210 185 262 333 532 525 511 452 439 450 391 462 376 362 392 394 402 441 460 457 463 475 492 483 460 440
203 194 197 188 231 245 231 235 224 207 191 228 243 303 337 527 515 466 431 433 379 421 429 412 371 360 343 345 344 345 350 354 365 408 435 435 443 447
191 205 224 260 228 141 228 198 175 215 238 254 315 383 528 496 433 407 377 363 373 346 342 334 332 344 350 349 350 343 346 347 341 338 344 354 360 364
212 238 237 267 137 216 207 163 228 239 272 323 491 529 493 422 389 359 361 357 340 331 326 336 338 332 336 334 336 338 342 356 357 365 357 351 351 354
260 239 149 223 204 207 221 226 239 305 317 499 523 480 414 385 353 347 340 341 344 334 317 321 323 327 325 322 345 349 355 369 368 365 364 361 358 359
191 138 204 190 214 218 231 266 305 320 521 504 491 410 384 370 352 332 324 324 330 326 310 313 316 322 319 314 360 362 382 379 362 362 368 371 350 337
143 174 206 214 232 232 280 304 317 521 487 495 405 385 381 360 333 314 318 319 315 320 306 308 309 314 314 303 384 384 384 361 354 370 440 342 343 354
202 211 207 229 242 308 306 342 521 488 458 398 376 378 347 335 313 320 315 311 302 305 304 311 310 299 314 378 387 380 368 459 451 351 338 350 341 341
180 214 229 252 309 310 405 513 492 427 388 369 378 340 314 325 309 327 317 304 299 307 303 300 304 306 331 411 395 440 446 405 334 346 344 343 326 338
224 234 285 310 314 528 514 479 406 384 368 373 340 311 325 321 319 313 309 307 298 300 304 301 308 304 341 380 418 375 342 333 343 337 333 325 322 398
235 301 306 322 526 493 455 396 373 361 356 336 317 314 306 306 301 307 309 309 299 292 302 296 287 311 375 365 407 379 334 328 322 305 307 361 403 378
298 304 348 522 473 434 387 369 356 347 342 327 306 302 289 293 292 285 285 296 303 302 300 292 287 308 377 358 360 379 323 318 309 290 350 392 386 384
312 453 513 453 411 383 369 358 348 332 326 302 296 296 294 295 291 283 288 280 294 301 303 282 286 305 378 356 345 356 319 347 283 291 370 392 370 377
539 493 430 395 367 352 332 318 307 304 305 307 307 305 306 313 317 305 296 290 285 296 305 288 287 307 348 365 336 345 301 299 332 355 377 386 379 375
459 405 379 355 334 318 305 308 314 323 324 451 442 424 421 434 375 300 304 262 285 291 305 288 290 308 349 370 340 360 283 290 289 359 380 399 416 381
394 370 346 323 308 308 319 317 348 250 386 425 415 406 401 407 418 432 371 279 266 279 300 288 291 309 352 369 344 338 283 285 316 375 383 399 388 389
366 339 318 305 317 309 378 331 243 306 366 383 401 401 395 391 394 407 377 406 286 274 292 289 294 309 361 356 342 300 290 286 352 377 402 397 399 424
337 318 305 317 313 359 344 285 363 370 369 365 388 392 388 389 392 399 381 399 295 279 287 289 295 311 367 351 346 296 286 282 350 395 408 399 373 413
319 303 315 315 358 366 242 245 364 358 362 369 375 381 388 388 395 413 400 414 299 265 279 285 294 320 362 342 326 293 283 283 352 397 407 353 365 365

GFSNE_2pvu_pres_012.txt.gz
Presure
209 211 212 208 183 189 187 183 186 176 184 188 199 197 205 213 242 241 258 249 185 186 206 217 168 213 250 376 575 647 574 563 567 655 418 372 366 366
205 202 188 180 183 191 183 182 190 193 194 199 199 204 240 288 254 257 198 197 187 229 241 282 160 570 527 488 480 481 485 359 515 567 656 645 616 580
198 193 180 183 185 188 191 193 198 200 197 204 229 282 251 257 209 220 157 208 244 289 342 544 501 465 466 459 491 503 409 426 487 499 519 579 612 596
192 184 182 190 191 193 191 200 199 210 224 299 267 252 208 213 220 234 251 267 340 510 500 455 447 423 432 394 469 430 382 362 359 377 436 486 488 515
185 188 196 192 195 195 182 208 220 223 262 137 167 187 155 226 238 255 315 381 503 475 436 396 377 382 358 348 335 344 345 352 358 352 352 361 373 442
194 188 195 195 176 204 211 236 251 141 215 219 206 224 234 242 295 339 525 480 441 414 379 357 365 352 338 332 323 321 325 331 343 356 361 365 359 358
194 195 195 201 194 230 231 265 227 204 211 221 229 240 249 323 485 509 460 421 395 374 352 335 346 348 334 323 323 323 324 323 324 339 349 352 366 370
195 199 154 216 237 257 223 140 216 180 230 238 244 311 329 533 486 431 405 386 355 366 334 329 335 326 317 320 319 321 322 321 321 368 369 374 366 369
190 157 218 255 173 195 194 208 216 231 242 256 324 392 518 488 425 392 380 364 345 341 329 323 319 316 319 316 313 318 318 326 373 400 390 379 370 369
155 187 191 215 180 184 205 229 227 242 294 330 522 507 456 410 389 379 355 331 325 322 324 317 312 316 316 307 314 311 339 403 437 381 377 363 357 363
162 181 202 205 213 206 221 234 241 313 344 509 488 427 395 380 383 349 331 319 308 317 320 315 312 312 307 309 312 309 405 446 456 446 358 437 439 464
168 237 206 213 211 222 238 247 321 518 485 451 403 384 376 390 359 323 329 314 315 310 314 305 307 306 303 302 305 347 420 387 360 355 355 351 343 338
225 206 211 219 224 240 275 332 493 464 409 385 369 365 357 347 324 327 319 319 306 301 304 304 301 305 293 294 312 383 388 374 360 337 335 346 352 350
211 214 216 227 240 314 390 468 432 396 379 366 364 355 357 341 313 315 300 300 291 282 291 300 301 304 298 293 319 373 382 350 328 328 332 314 326 307
208 217 228 241 326 461 436 403 378 357 334 325 317 312 307 306 303 302 307 298 293 290 285 293 296 300 290 292 323 365 352 353 358 321 296 301 302 389
215 228 278 324 455 417 387 350 331 319 312 310 316 317 316 317 318 312 311 304 309 302 277 280 296 298 292 295 323 359 351 326 315 308 301 293 381 390
230 323 323 458 410 380 346 328 317 318 334 342 381 267 308 379 372 429 374 313 303 318 299 279 293 298 293 305 331 368 365 334 296 293 353 374 393 436
329 366 455 407 372 339 323 317 331 378 388 388 255 250 249 410 407 413 430 442 374 315 265 284 295 296 296 312 373 356 348 284 289 339 380 387 410 397
546 448 402 364 334 319 307 335 367 369 331 251 253 376 367 401 394 390 402 426 372 344 268 275 296 296 299 317 369 355 314 285 296 385 389 390 433 391
444 399 359 332 317 318 356 382 349 362 251 361 366 374 383 393 392 394 390 406 389 354 286 274 295 296 305 367 354 340 286 291 364 396 396 407 407 410
394 352 327 312 329 386 375 318 253 338 335 341 356 371 380 381 391 396 405 407 394 366 283 273 296 296 315 360 344 291 286 304 412 412 396 412 408 406
350 323 307 308 348 349 339 301 326 328 329 344 356 376 387 385 386 395 412 413 395 341 274 279 292 303 363 345 325 285 286 388 375 359 371 390 401 398
322 306 301 327 322 321 283 321 320 317 322 356 370 389 414 413 416 424 439 417 377 285 264 289 297 346 345 338 293 281 363 372 367 368 356 365 389 407

GFSNE_2pvu_pres_015.txt.gz
Presure
178 178 182 172 175 181 177 198 200 191 187 188 195 195 194 195 201 206 208 218 254 284 253 186 195 209 224 235 237 248 257 285 378 539 538 545 556 564
188 182 181 176 180 179 180 176 186 191 193 197 186 196 194 210 212 227 258 293 240 200 211 175 230 238 245 163 289 343 480 467 466 462 473 508 517 508
197 188 182 186 184 181 179 190 188 182 188 192 201 210 215 237 244 281 191 150 192 225 239 244 253 298 519 513 466 451 448 421 455 418 456 457 463 415
199 197 183 184 183 180 188 189 183 185 167 206 212 227 234 280 169 211 195 228 240 251 255 275 521 500 456 436 423 388 372 365 359 354 356 361 358 360
197 196 183 182 189 183 187 184 180 203 214 221 239 241 193 259 202 222 220 247 249 284 501 501 466 423 415 387 369 353 349 350 344 342 341 349 350 351
198 183 186 188 184 189 186 199 208 162 212 228 220 269 201 225 227 241 245 258 459 500 467 438 413 386 366 351 342 342 343 334 333 333 335 336 337 338
182 185 183 188 186 194 203 213 206 229 205 245 263 211 217 228 243 250 328 523 460 439 425 398 378 352 342 338 331 326 321 320 324 323 321 324 329 337
180 183 188 187 200 203 180 227 227 178 263 259 221 228 238 248 263 516 493 430 405 401 405 356 348 338 335 325 316 308 307 309 321 321 331 331 516 451
181 185 186 149 136 174 216 181 212 232 230 229 229 238 248 492 481 424 399 390 380 388 370 334 337 324 329 319 314 312 316 313 317 319 344 473 479 392
191 197 150 213 224 189 210 265 231 215 241 224 237 253 470 427 406 390 377 379 379 363 350 321 328 325 323 312 310 309 307 309 307 324 408 373 436 444
201 207 214 222 218 266 234 222 216 230 233 240 283 433 412 398 384 381 362 370 346 327 342 326 318 309 312 309 304 303 306 305 296 392 394 373 349 356
211 223 222 241 260 197 221 217 228 237 242 431 402 377 356 347 335 328 365 354 328 317 327 309 317 305 295 306 302 307 308 300 315 390 396 361 344 333
220 229 261 253 217 220 221 231 238 272 422 394 368 349 336 326 326 328 326 321 309 314 306 303 303 298 293 294 301 302 303 298 327 374 370 325 336 343
261 254 216 213 211 227 233 241 377 412 387 362 343 332 332 374 396 394 376 279 265 310 305 306 301 294 291 291 295 309 300 301 342 375 363 347 329 320
202 217 210 217 231 234 246 441 403 376 351 332 330 397 394 399 401 398 257 423 441 342 318 301 301 303 284 286 294 304 292 316 375 372 351 318 309 309
213 212 225 229 241 338 427 397 365 339 326 366 393 390 384 386 368 250 414 414 418 426 446 353 324 317 291 286 294 299 298 324 373 347 298 292 293 375
213 225 237 275 458 416 386 351 332 379 389 371 360 357 360 299 380 392 403 407 404 415 429 422 343 299 290 290 301 295 315 376 355 284 285 288 399 392
233 240 383 450 409 374 343 330 381 360 354 347 345 325 354 360 377 384 400 401 397 405 428 394 328 275 283 299 294 310 368 353 296 284 288 399 398 414
325 513 443 398 361 334 331 344 336 340 325 328 339 334 368 369 382 388 389 401 396 405 387 375 277 282 288 297 308 366 347 293 277 414 411 403 411 393
537 436 390 354 331 321 334 326 324 318 320 323 331 380 385 407 413 403 394 400 399 398 378 294 286 279 299 309 369 348 289 291 396 355 414 399 389 379
434 382 349 325 318 334 324 319 317 308 311 340 366 409 431 417 420 433 418 411 417 394 355 287 278 297 311 362 341 290 287 381 342 370 386 402 386 390
375 342 323 323 322 324 293 318 330 327 315 342 408 434 407 419 432 434 453 462 402 328 286 277 297 313 359 339 322 320 383 346 358 352 380 394 396 372
336 318 317 325 324 308 310 331 318 318 315 365 417 429 417 412 436 442 423 377 304 282 271 296 318 352 313 313 333 359 380 336 365 399 387 400 340 344

GFSNE_2pvu_pres_021.txt.gz
Presure
266 96 242 238 228 228 230 236 244 240 221 225 225 224 225 221 217 217 213 219 218 211 211 193 193 192 200 194 204 223 252 305 241 230 222 196 211 216
252 257 253 245 239 236 231 228 231 233 232 231 229 231 229 228 228 223 219 222 225 208 200 193 200 202 145 158 193 284 238 149 127 218 251 227 257 268
255 254 251 254 257 253 241 237 227 234 234 233 238 244 241 239 237 234 233 228 199 196 199 203 144 152 207 206 256 206 211 225 261 280 440 506 499 503
239 242 246 245 252 256 261 246 245 231 228 220 216 217 247 251 253 246 213 195 194 145 205 158 224 224 269 206 221 238 267 290 473 465 457 357 435 440
236 241 244 247 246 251 259 264 267 245 233 224 217 219 240 253 247 197 194 202 171 213 224 241 274 215 218 249 266 308 424 428 421 421 417 409 396 385
229 230 238 240 241 250 252 263 273 270 265 228 218 239 241 199 197 169 207 214 224 242 279 254 213 251 266 292 379 414 417 412 393 385 372 359 353 353
239 243 257 256 257 270 275 184 257 255 233 230 228 201 199 204 213 214 225 246 284 217 210 253 266 335 392 382 372 355 360 382 368 356 348 342 338 335
251 260 263 263 251 244 240 234 226 228 213 198 195 204 213 219 231 256 293 191 219 251 265 293 396 375 371 367 355 344 325 367 352 340 331 327 325 326
263 233 227 225 231 229 214 206 199 201 204 210 217 226 241 265 273 207 218 254 265 316 392 374 371 350 366 339 340 337 324 354 341 335 326 326 324 321
223 233 220 205 194 194 200 202 204 216 223 231 267 282 252 229 248 257 266 341 378 387 409 391 380 386 425 417 409 360 339 347 318 326 330 320 312 313
197 193 189 200 202 207 211 219 225 275 278 276 217 256 248 258 266 382 383 381 378 361 361 370 364 365 394 429 417 405 360 307 259 332 319 310 307 307
195 203 207 212 215 230 266 269 265 241 255 234 247 255 281 404 391 375 378 369 354 325 351 361 351 388 396 414 421 437 396 249 289 322 313 303 301 302
206 212 233 270 262 259 252 208 236 233 242 251 331 402 384 369 361 364 358 360 352 343 402 409 399 388 418 429 403 352 456 326 317 310 313 304 297 305
261 263 257 250 216 226 234 234 236 255 445 413 392 367 354 360 351 352 354 358 420 436 430 416 401 401 423 411 420 430 461 326 309 305 309 300 299 307
247 235 217 227 237 216 237 254 473 427 403 375 350 350 348 346 355 378 431 452 443 446 448 443 415 418 409 421 427 429 442 329 302 307 311 295 306 311
231 222 237 174 241 266 441 458 413 388 359 342 344 339 339 345 410 447 440 426 426 417 431 445 419 418 421 421 414 402 394 335 317 309 294 306 311 328
227 232 229 271 355 504 443 404 372 346 330 344 332 330 316 435 445 448 444 443 449 450 440 416 383 375 369 374 378 375 342 282 293 306 308 341 387 359
236 260 326 353 483 427 389 358 332 327 341 330 325 307 438 458 430 439 457 464 465 433 367 373 371 348 325 300 286 282 299 312 324 359 385 378 293 388
306 328 359 469 418 370 343 320 339 339 308 323 318 430 389 417 420 407 405 384 375 368 319 309 301 294 287 294 310 348 349 344 368 295 291 356 419 375
332 362 451 404 352 328 309 340 289 290 325 316 399 368 381 382 351 332 319 312 302 297 291 289 291 311 343 340 329 318 341 374 357 353 407 368 355 359
371 438 393 344 319 304 323 286 305 308 318 295 356 365 346 317 307 300 294 288 281 283 343 336 332 322 307 300 301 366 379 382 377 376 344 339 365 353
430 390 344 319 301 319 294 278 270 320 308 365 347 336 309 301 291 286 281 273 331 332 322 309 296 287 339 364 366 373 371 364 353 340 322 338 332 336
389 346 318 303 293 315 281 256 320 210 298 362 344 315 299 290 286 278 273 343 330 324 331 286 283 352 375 367 367 373 355 353 340 341 330 325 314 320